Regional Weather Roundup
Issued by NWS State College, PA

Home | Current Version | Previous Version | Graphics & Text | Print | Product List | Glossary On
Versions: 1 2 3 4 5 6 7 8 9 10 11 12 13 14 15 16 17 18 19 20 21 22 23 24 25 26 27 28 29 30 31 32 33 34 35 36 37 38 39 40 41 42 43 44 45 46 47 48 49 50
000
ASUS41 KCTP 270210
RWRCTP

REGIONAL WEATHER ROUNDUP
NATIONAL WEATHER SERVICE STATE COLLEGE PA
1000 PM EDT THU MAR 26 2015

Note: "fair" indicates few or no clouds below 12,000 feet with no
significant weather and/or obstructions to visibility.

* = STATION THAT DOES NOT REPORT PRECIPITATION /E.G. RAIN...SNOW...ETC/
    THUNDER OR FOG.

PAZ002>004-007>009-013>016-020>023-029>032-270300-
WESTERN PENNSYLVANIA

CITY           SKY/WX    TMP DP  RH WIND       PRES   REMARKS
ERIE           CLOUDY    35  32  88 W3        29.88R FOG
MEADVILLE      CLOUDY    34  31  88 W8        29.85S
FRANKLIN*      CLOUDY    34  28  80 W7        29.87S
NEW CASTLE     CLOUDY    36  34  92 W5        29.89S
BEAVER COUNTY  NOT AVBL
BUTLER*        CLOUDY    36  34  93 N5        29.87F
PITTSBURGH INT CLOUDY    39  35  86 NW10      29.86R
PITTSBURGH     CLOUDY    39  35  86 NW10      29.84F
INDIANA*       CLOUDY    39  39 100 NW10      29.86S
LATROBE        CLOUDY    41  41 100 NW6       29.86R
WASHINGTON CO* CLOUDY    39  37  93 NW9       29.88S
$$

PAZ004>006-010>012-017>019-024>028-033>037-041-042-045-046-049>053-270300-
CENTRAL PENNSYLVANIA

CITY           SKY/WX    TMP DP  RH WIND       PRES   REMARKS
BRADFORD       CLOUDY    33  30  88 NW8       29.80R
DUBOIS         CLOUDY    37  34  89 W10       29.81R
CLEARFIELD     CLOUDY    38  35  89 W9        29.81R
JOHNSTOWN      CLOUDY    37  36  96 NW17      29.77R FOG
ALTOONA        MOCLDY    40  34  79 NW3       29.79R
STATE COLLEGE  NOT AVBL
WILLIAMSPORT   CLOUDY    40  37  89 CALM      29.76F
SELINSGROVE    CLOUDY    43  39  86 NW6       29.78R
FT INDIANTOWN  CLOUDY    45  40  82 N7        29.73R
CAPITAL CITY   CLOUDY    47  39  74 NW10      29.75R
HARRISBURG     LGT RAIN  47  40  76 NW14      29.74R
YORK           CLOUDY    48  42  80 NW12      29.74R
$$

PAZ038>040-043-044-047-048-054-055-060>062-067>071-270300-
EASTERN PENNSYLVANIA

CITY           SKY/WX    TMP DP  RH WIND       PRES   REMARKS
SCRANTON       CLOUDY    41  37  86 N7        29.73R
MOUNT POCONO   CLOUDY    37  35  92 NW12G20   29.67R
ALLENTOWN      CLOUDY    46  43  87 NW10      29.70R
QUAKERTOWN*    CLOUDY    48  46  93 NW8       29.68S
READING        CLOUDY    49  43  80 N14       29.71R
LANCASTER      CLOUDY    48  43  82 NW9       29.70R
COATESVILLE    CLOUDY    50  50 100 N8        29.69S
POTTSTOWN      CLOUDY    51  51 100 NW5       29.70R
BLUE BELL      CLOUDY    54  52  94 N6        29.67S
DOYLESTOWN     HVY RAIN  50  50 100 NW9       29.67R FOG
WILLOW GROVE   NOT AVBL
NORTH PHILA    HVY RAIN  56  50  80 NW10      29.68R
PHILADELPHIA   CLOUDY    56  52  86 NW12      29.67S
$$



USA.gov is the U.S. government's official web portal to all federal, state and local government web resources and services.